Regional Weather Roundup
Issued by NWS Wakefield, VA

Home | Current Version | Previous Version | Graphics & Text | Print | Product List | Glossary On
Versions: 1 2 3 4 5 6 7 8 9 10 11 12 13 14 15 16 17 18 19 20 21 22 23 24 25 26 27 28 29 30 31 32 33 34 35 36 37 38 39 40 41 42 43 44 45 46 47 48 49 50
000
ASUS41 KAKQ 251514
RWRAKQ

REGIONAL WEATHER ROUNDUP
NATIONAL WEATHER SERVICE WAKEFIELD VA
1100 AM EDT SAT APR 25 2015

Note: "fair" indicates few or no clouds below 12,000 feet with no
significant weather and/or obstructions to visibility. * = Denotes
station may not report precipitation (e.g., rain,snow,etc.),
thunder or fog.

VAZ042-051-052>054-056-251600-
NORTHERN VIRGINIA

CITY           SKY/WX    TMP DP  RH WIND       PRES   REMARKS
WASH NATIONAL  CLOUDY    50  31  48 S3        29.96F
DULLES         CLOUDY    48  16  27 SW3       29.95F
FORT BELVOIR   CLOUDY    49  29  45 SE6       29.97F
QUANTICO       CLOUDY    50  27  40 VRB3      29.99F
FREDERICKSBRG* CLOUDY    51  24  35 NE6       29.96F
STAFFORD*      DRIZZLE   48  26  41 E5        30.01F
WARRENTON      LGT RAIN  48  23  36 E3        29.95F
CULPEPER*      LGT RAIN  48  25  40 CALM      29.96F
MANASSAS*      CLOUDY    48  18  29 CALM      29.97F
LEESBURG*      CLOUDY    48  25  40 CALM      29.96F
WINCHESTER     CLOUDY    46  16  29 CALM      29.93F
FRONT ROYAL*   CLOUDY    45  23  42 SE3       29.93F
LURAY*         CLOUDY    46  25  42 NE7       29.92F
$$

VAZ048-049-060>072-079>083-251600-
CENTRAL AND SOUTH CENTRAL VIRGINIA

CITY           SKY/WX    TMP DP  RH WIND       PRES   REMARKS
RICHMOND       LGT RAIN  51  36  56 E7        29.94F
CHESTERFIELD*  CLOUDY    50  30  46 E5        29.96F
PETERSBURG*    LGT RAIN  50  41  71 NE6       29.96F
HANOVER        LGT RAIN  48  40  73 CALM      29.96F
TAPPAHANNOCK*  CLOUDY    51  31  45 CALM      29.97F
QUINTON*       CLOUDY    49  39  68 N5        29.96F
CHARLOTTSVILLE LGT RAIN  48  27  44 S3        29.94F
GORDONSVILLE*  CLOUDY    48  22  35 CALM      29.95F
ORANGE*        CLOUDY    50  27  40 CALM      29.96F
LOUISA*        CLOUDY    50  28  43 E3        29.93F
BUMPASS*       CLOUDY    49  28  44 CALM      29.95F
FARMVILLE*     LGT RAIN  49  37  63 NE5       29.93F
CREWE*         CLOUDY    47  42  80 NE3       29.93F
FORT PICKETT*  CLOUDY    47  40  77 NE9       29.94F
CHASE CITY*    CLOUDY    53  39  59 E6        29.89F
CLARKSVILLE*   CLOUDY    54  36  50 E9        29.89F
SOUTH HILL*    CLOUDY    51  41  69 N3        29.98F
LAWRENCEVILLE* CLOUDY    50  41  71 NE6       29.94F
EMPORIA*       CLOUDY    50  45  81 N6        29.96F
$$

VAZ088>098-251600-
SOUTHEAST VIRGINIA

CITY           SKY/WX    TMP DP  RH WIND       PRES   REMARKS
NORFOLK        RAIN      50  39  66 E9        29.96F
VIRGINIA BEACH LGT RAIN  52  41  66 NE8       29.96F
NORFOLK NAVAL  LGT RAIN  53  42  66 E8        29.96F
WEST POINT*    CLOUDY    53  38  56 CALM      29.96F
SALUDA*        CLOUDY    51  36  55 CALM      29.96F
NEWPORT NEWS   LGT RAIN  54  44  69 E5        29.95F
LANGLEY AFB    LGT RAIN  51  44  76 NE13      29.94F
FORT EUSTIS    DRIZZLE   51  41  68 E3        29.94F
WILLIAMSBURG*  CLOUDY    54  46  76 CALM      29.97F
HR EXEC AP*    FAIR      54  45  71 E6        29.97S
FRANKLIN*      CLOUDY    53  44  73 NE6       29.95F
WAKEFIELD      CLOUDY    51  46  83 E3        29.95F
$$

VAZ020-022-025-037-045-251600-
WEST CENTRAL AND SOUTHWEST VIRGINIA

CITY           SKY/WX    TMP DP  RH WIND       PRES   REMARKS
STAUNTON*      LGT RAIN  47  29  48 CALM      29.94S
WAYNESBORO*    CLOUDY    45  26  47 SE5       29.91F
HOT SPRINGS VA DRIZZLE   35  32  88 SE8       29.83F
LYNCHBURG      LGT RAIN  47  38  71 NE9       29.93F
DANVILLE       LGT RAIN  50  42  74 E6        29.91S
SOUTH BOSTON*  CLOUDY    53  37  55 E3        29.91F
MARTINSVILLE   LGT RAIN  50  37  59 N5        29.92F
ROANOKE        CLOUDY    47  36  65 CALM      29.93F
BLACKSBURG     RAIN      41  35  79 NE6       29.92R
DUBLIN*        CLOUDY    44  42  93 NE6       29.88F
MARION*        CLOUDY    46  35  65 NE6       29.88S
HILLSVILLE*    CLOUDY    47  37  67 SE7       29.85S
RICHLANDS*     CLOUDY    48  26  40 SE6       29.80F
WISE*          LGT RAIN  48  41  76 S5        29.79F
ABINGDON*      CLOUDY    53  46  77 E7        29.81R
$$

MDZ021>025-VAZ099-100-251600-
SOUTHERN MARYLAND AND THE DELMARVA PENINSULA

CITY           SKY/WX    TMP DP  RH WIND       PRES   REMARKS
PATUXENT RIVER LGT RAIN  47  34  60 E7        29.98F
BAY BRIDGE APT   N/A    N/A N/A N/A S5        29.97R
LEONARDTOWN    CLOUDY    46  34  61 E3        29.99S
DOVER          CLOUDY    47  26  45 NW9       29.90F
GEORGETOWN     CLOUDY    44  25  47 W3        29.97S
EASTON         NOT AVBL
CAMBRIDGE      CLOUDY    46  27  46 CALM      29.97F
SALISBURY      CLOUDY    46  26  45 CALM      29.97F
OCEAN CITY     CLOUDY    47  26  44 CALM      29.97S
WALLOPS ISLAND CLOUDY    47  30  51 VRB3      29.99R
ACCOMACK*      CLOUDY    46   1  15 SE5       29.98S
$$

NCZ012>017-030>032-251600-
NORTH CENTRAL AND EASTERN NORTH CAROLINA

CITY           SKY/WX    TMP DP  RH WIND       PRES   REMARKS
ROANOKE RAPIDS CLOUDY    54  43  66 E5        29.92F
RALEIGH        CLOUDY    57  45  64 S3        29.91F
ELIZABETH CITY CLOUDY    58  35  42 E8        29.96R
AHOSKIE*       LGT RAIN  54  44  68 NE5       29.93F
EDENTON*       CLOUDY    58  48  69 SE7       29.94F
CURRITUCK*     CLOUDY    58  28  31 NE6       29.97R
KILL DEVIL HLS CLOUDY    58  31  35 E3        29.94R
MANTEO         CLOUDY    58  33  38 E6        29.95S
CAPE HATTERAS  CLOUDY    58  47  66 NW9       29.94S
TARBORO*       CLOUDY    54  45  71 CALM      29.93S
GOLDSBORO      CLOUDY    59  52  77 W1        29.90F
WASHINGTON       N/A     58  46  65 S3        29.93F
GREENVILLE     CLOUDY    59  46  63 CALM      29.94S
NEW BERN       CLOUDY    61  50  67 SW3       29.94F
WILMINGTON     LGT RAIN  66  52  60 SW12      29.93S
$$

VAZ048-251600-
ELSEWHERE

CITY           SKY/WX    TMP DP  RH WIND       PRES   REMARKS
HARRISBURG PA  CLOUDY    45  20  36 W7        29.93F
BALTIMORE      CLOUDY    47  27  45 W6        29.95F
ANNAPOLIS      CLOUDY    47  28  47 S5        29.96S
ANDREWS AFB    CLOUDY    48  28  45 SW6       29.95F
PHILADELPHIA   CLOUDY    47  22  37 CALM      29.93F
HENDERSON NC   CLOUDY    53  34  48 E6        29.91F
GREENSBORO     LGT RAIN  51  46  83 N3        29.88F
ROCKY MOUNT    CLOUDY    56  45  66 S3        29.91F
$$

VAZ100-251600-
MARINE

STATION/POSITION TIME  TEMP    WIND        PRES    WAVE   SWELL
                       AIR SEA DIR/SP/G            HT/PER HT/PER
                 (UTC) (F)     (DEG/KT/KT) (MB)    (FT/S) (FT/S)
BRANDYWINE LGT   1400   44 51  340/ 11/ 16 1014.5F
CAPE MAY NJ      1400   45 55  310/ 10/ 14 1014.1F
LEWES DE         1400   45 52  300/  8/  9 1014.6F
15NM E FENWICK I 1450   44 47              1014.3F   2/ 6
OCEAN-CITY-INLET 1400   45 50   10/  6/  7 1014.4F
WACHAPREAGUE VA  1400   47 56   70/  8/ 10 1015.1R
THOMAS POINT MD  1500   45 52  210/  8/  9 1015.2F
GOOSES REEF MD   1500   45 53  200/  6/  8   N/A     1
COVE POINT MD    1400   44      90/  5/  7 1016.2R
SOLOMONS ISLAND  1400      55                N/A
BISHOPS HEAD MD  1400   47 54   50/  7/  9 1015.1R
PINEY POINT MD   1400          110/  6/  7   N/A
CAMBRIDGE MD     1400   45 57   70/  4/  6 1015.2R
LEWISETTA VA     1400   49 56              1014.9R
RAPPAHANNOCK LGT 1400          110/  9/ 10 1015.3R
YORK RVR RNG VA  1400   52      90/  6/  8 1014.5R
YORKTOWN VA      1400   53 60   60/  8/ 11 1014.8R
JAMESTOWN VA     1500   51 64   70/  4/  6 1013.5F
DOMINION TERM VA 1400   54      60/  8/ 11 1015.2R
KIPTOPEKE VA     1400      62   80/  4/  9   N/A
CHES BAY BRIDGE  1400   52 56   50/  9/ 12 1014.5R
CAPE HENRY VA    1400   51      50/  9/ 10 1013.6R
CHESAPEAKE LGHT  1400   50      60/  8/  9 1015.6R
WILLOUBY STN VA  1400   53      70/  8/  9 1015.6R
S CRANEY ISL VA  1400           50/  7/  9 1014.9R
CAPE HENRY BUOY  1428      52                N/A     2/12
1ST LANDING BUOY 1400                      1014.5R   2/ 3
OFFSHORE WE BUOY 1411      50                N/A     2/13   2/13
64NM E OF VA BCH 1450   55 59  350/  6/  8 1014.4R   2/13   2/13
DUCK PIER NC     1400   56 55  120/  5/  5 1012.9R
44056 DUCK FRF   1411      54                N/A     2/13   2/13
OREGON INLET NC  1400   57 56  120/  5/  6 1014.0R
HATTERAS NC      1400   60 65  290/ 11/ 12 1013.2F
DIAMOND SHLS NC  1450   62 72  320/ 12/ 14 1013.6S   3/ 8   2/ 8
CAPE LOOKOUT NC  1500   65     290/  3/  4 1013.3S
$$



USA.gov is the U.S. government's official web portal to all federal, state and local government web resources and services.